Location: Kapla
(46.2483°N, 15.0094°E)
Time: 15:07:15
(UTC+00:00)

Cosmos 2154 Rocket - Pass Details

Date: 03 March 2021
Orbit: 966 x 996 km, 82.9° (Epoch: 17 April)

Event Time Altitude Azimuth Distance (km) Brightness Sun altitude
Rises 17:33:32 0° 177° (S) 3,657 7.0 -8.5°
Reaches altitude 10° 17:36:03 10° 174° (S) 2,710 6.3 -8.9°
Maximum altitude 17:42:11 66° 94° (E) 1,052 4.0 -10.0°
Drops below altitude 10° 17:48:20 10° 14° (NNE) 2,718 6.2 -11.0°
Sets 17:50:51 0° 11° (NNE) 3,668 6.9 -11.5°
